MDT,Max TemperatureF,Mean TemperatureF,Min TemperatureF,Max Dew PointF,MeanDew PointF,Min DewpointF,Max Humidity, Mean Humidity, Min Humidity, Max Sea Level PressureIn, Mean Sea Level PressureIn, Min Sea Level PressureIn, Max VisibilityMiles, Mean VisibilityMiles, Min VisibilityMiles, Max Wind SpeedMPH, Mean Wind SpeedMPH, Max Gust SpeedMPH,PrecipitationIn, CloudCover, Events, WindDirDegrees
2012-10-1,64,46,28,38,30,25,89,65,26,30.43,30.31,30.18,,,,8,1,,0.00,,,110
2012-10-2,63,46,30,29,25,18,85,43,20,30.16,29.97,29.80,,,,10,4,25,0.00,,,271
2012-10-3,44,35,25,24,17,11,69,50,32,30.36,30.10,29.80,,,,13,3,22,0.00,,,323
2012-10-4,41,29,19,18,15,11,78,55,32,30.35,30.25,30.16,,,,7,2,,0.00,,,9
2012-10-5,41,29,19,17,13,8,78,59,27,30.38,30.28,30.20,,,,8,3,18,0.00,,,330
2012-10-6,42,25,9,16,7,-8,84,53,12,30.46,30.35,30.26,,,,6,2,,0.00,,,319
2012-10-7,51,34,19,24,16,9,74,54,24,30.31,30.21,30.09,,,,7,2,,0.00,,,20
2012-10-8,51,35,19,14,12,8,74,46,18,30.19,30.06,29.96,,,,9,3,20,0.00,,,291
2012-10-9,48,36,25,26,21,12,78,59,39,30.19,30.10,29.98,,,,6,1,,0.00,,,302
2012-10-10,60,40,21,30,20,14,89,58,20,30.25,30.11,29.98,,,,7,2,,0.00,,,315
2012-10-11,61,43,26,30,19,15,71,49,19,30.17,30.07,30.01,,,,8,2,17,0.00,,,303
2012-10-12,60,42,25,36,26,17,81,58,27,30.12,29.98,29.86,,,,6,2,,0.00,,,308
2012-10-13,46,36,27,34,29,23,88,77,63,30.31,30.12,29.91,,,,8,2,16,0.00,,,285
2012-10-14,51,37,23,32,26,21,92,73,44,30.45,30.33,30.19,,,,7,1,,0.00,,,300
2012-10-15,50,38,27,36,31,24,100,82,54,30.17,30.09,30.00,,,,15,2,23,0.05,,,276
2012-10-16,44,36,28,41,32,14,96,81,56,30.03,29.77,29.54,,,,10,3,26,0.33,,,277
2012-10-17,37,28,19,15,14,12,81,56,37,30.26,30.10,29.90,,,,15,7,26,0.00,,,277
2012-10-18,46,30,15,20,15,8,84,59,29,30.42,30.34,30.27,,,,9,1,17,0.00,,,303
2012-10-19,46,34,21,27,21,17,85,63,35,30.25,30.11,29.90,,,,9,2,20,0.01,,,276
2012-10-20,48,38,28,34,28,23,85,60,42,29.89,29.71,29.62,,,,15,6,32,0.00,,,262
2012-10-21,44,36,28,25,23,20,79,60,40,29.90,29.81,29.73,,,,9,3,16,0.00,,,283
2012-10-22,39,32,27,33,30,23,96,90,76,29.87,29.76,29.63,,,,6,1,,0.53,,,100
2012-10-23,32,24,17,28,21,13,89,82,67,30.00,29.84,29.70,,,,8,4,,0.13,,,240
2012-10-24,30,19,10,17,12,8,89,75,47,30.22,30.10,29.99,,,,5,1,,0.01,,,300
2012-10-25,26,16,7,19,12,3,89,83,65,30.51,30.29,30.18,,,,7,1,,0.70,,,328
2012-10-26,21,12,3,16,11,0,88,83,71,30.58,30.44,30.22,,,,7,1,,0.04,,,275
2012-10-27,27,23,19,24,20,16,92,85,78,30.21,30.18,30.15,,,,7,3,17,0.14,,,280
2012-10-28,39,32,27,35,31,23,97,90,82,30.16,30.13,30.10,,,,8,4,,0.27,,,275
2012-10-29,45,37,30,36,34,29,97,89,73,30.23,30.15,30.11,,,,7,1,,0.13,,,290
2012-10-30,48,39,30,31,29,27,88,70,46,30.26,30.19,30.13,,,,7,4,,0.00,,,281
2012-10-31,53,39,25,32,27,23,92,73,34,30.29,30.19,30.07,,,,5,1,,0.00,,,305